SCOUT X-1 R/B, 82

Orbit data source: Space-Track

SCOUT X-1 R/B, 82 is space debris in LEO originally from a launch on Thu, 16 Feb 1961 UTC launched from the Wallops Island (WLPIS). Debris objects in space refer to the collection of defunct objects orbiting the Earth. Examples of debris include non-operational satellites, rocket bodies, and fragments generated from explosions, collisions, or faulty payload assembly.

Loading next visibility...
Identifier
82, 1961-004B
Orbit
LEO
Country
Flag of USUS
Related business
Manufacturer
ABL
Mission
Spacecraft
Bus & Motor
ALTAIR, Unknown motor
Mass
53 kg wet, 24 kg dry
Launch date (UTC)
1961-02-16 (65 years ago)
Launch vehicle
Unknown
Launch site
Wallops Island (WLPIS)
Object type
Payload
Rocket body
Debris
Shape & HBR
Unknown
Radar Cross Section
Medium (>0.1 m² and <1 m²)

Expand to show TLE details & history
Last TLE update: 22 hours ago

TLE from 22 hours ago
0 SCOUT X-1 R/B
1 00082U 61004B   26145.50309407  .00000134  00000-0  15433-3 0  9994
2 00082  38.8549  84.0423 1166126 116.2685 256.2461 12.27906284 74011
Epoch: 2026-05-25T12:04Z
TLE epoch observation values (Epoch: 2026-05-25T12:04:27.327Z)
Latitude
-0.00001°
Longitude
19.83847°
Altitude
1,874.683 km
Speed
6.812 km/s
True Right ascension
05h 36m 10s
True Declination
0° 00' 00"
Sunlit
Object was in daylight at epoch
Visualization orbit readout
Latitude
Unknown
Longitude
Unknown
Altitude
Unknown
Speed
Unknown
Apparent Right ascension
Unknown
Apparent Declination
Unknown
Sunlit
N/A
Visualization observer readout
Local Sidereal Time
19:06:54
Azimuth
Unknown
Elevation
Unknown
Doppler factor
Unknown
Orbital elements
Apogee altitude
2,486.374 km
Perigee altitude
634.857 km
Semi-major axis
7,938.753 km
Eccentricity
0.11661
Inclination
38.8549°
RAAN
84.0423°
Arg. of periapsis
116.2685°
True anomaly
243.79987°
Mean anomaly
256.2461°
Eccentric anomaly
249.96887°
Mean motion
3.06842 °/min
Orbital period
117.32 mins
BSTAR
0.00015433
Loading maneuver chart data...
Computing Atmospheric mass density...
Loading historical data...
Loading historical data...
Loading historical data...
Loading historical data...
Loading historical data...
Loading historical data...
Loading historical data...

Documentation

Showing up to 5 results
|